Location: Little Maitland River
(43.8022°N, 81.1549°W)
Time: 20:44:31
(UTC+00:00)

Cosmos 2263 Rocket - Visible Passes

Search period start: 16 March 2026 00:00
Search period end: 26 March 2026 00:00
Orbit: 822 x 848 km, 71.0° (Epoch: 16 March)

Date Brightness Start Highest point End Pass type
(mag) Time Alt. Az. Time Alt. Az. Time Alt. Az.
16 Mar 4.4 03:11:35 10° N 03:13:17 18° N 03:13:17 18° N visible
17 Mar 4.2 02:54:27 10° N 02:56:34 19° N 02:56:34 19° N visible
17 Mar 5.0 04:37:59 10° NW 04:38:14 11° NW 04:38:14 11° NW visible
18 Mar 4.0 02:37:21 10° N 02:39:53 21° NNE 02:39:53 21° NNE visible
18 Mar 4.8 04:20:46 10° NNW 04:21:33 14° NW 04:21:33 14° NW visible
19 Mar 3.9 02:20:15 10° N 02:23:13 21° NNE 02:23:13 21° NNE visible
19 Mar 4.6 04:03:32 10° NNW 04:04:53 18° NW 04:04:53 18° NW visible
20 Mar 3.8 02:03:09 10° N 02:06:35 21° NE 02:06:35 21° NE visible
20 Mar 4.3 03:46:19 10° NNW 03:48:15 22° NW 03:48:15 22° NW visible
21 Mar 3.7 01:46:03 10° N 01:49:58 21° NE 01:49:58 21° NE visible
21 Mar 4.0 03:29:07 10° NNW 03:31:38 27° NW 03:31:38 27° NW visible
22 Mar 3.7 01:28:59 10° N 01:32:58 19° NE 01:33:22 19° NE visible
22 Mar 3.6 03:11:54 10° NNW 03:15:03 35° NNW 03:15:03 35° NNW visible
23 Mar 3.8 01:11:55 10° N 01:15:41 18° NE 01:16:49 17° ENE visible
23 Mar 3.1 02:54:42 10° NNW 02:58:30 44° NNW 02:58:30 44° NNW visible
24 Mar 3.8 00:54:51 10° N 00:58:25 17° NE 01:00:18 14° ENE visible
24 Mar 2.6 02:37:30 10° NNW 02:41:58 58° NNW 02:41:58 58° NNW visible
25 Mar 4.0 00:37:50 10° N 00:41:08 16° NE 00:43:49 12° ENE visible
25 Mar 2.2 02:20:19 10° NNW 02:25:30 74° N 02:25:30 74° N visible
25 Mar 4.8 04:06:12 10° WNW 04:07:11 12° WNW 04:07:11 12° WNW visible
